Overview Statistics Trail Chart Weather Telemetry Raw packets
 

This is the latest recevied weather packets stored in our database for station/object OE6ACM-10. If no packets are shown the sender has not sent any weather packets the latest 10 day(s).

<< 73 74 75 76 77 78 79 >>
Time Temp. Humidity Pressure Rain* Wind** Luminosity Snow
1788170216 26.11° C 100% 928.4 hPa - - - -
1788169916 25.56° C 100% 928.4 hPa - - - -
1788169616 25.56° C 100% 928.4 hPa - - - -
1788169316 26.11° C 100% 928.5 hPa - - - -
1788169016 25.56° C 100% 928.5 hPa - - - -
1788168716 25° C 100% 928.7 hPa - - - -
1788168416 25° C 100% 928.7 hPa - - - -
1788168116 24.44° C 100% 928.7 hPa - - - -
1788167816 23.89° C 100% 928.8 hPa - - - -
1788167516 23.89° C 100% 928.8 hPa - - - -
1788167216 23.33° C 100% 928.8 hPa - - - -
1788166916 23.33° C 100% 928.7 hPa - - - -
1788166616 22.78° C 100% 928.7 hPa - - - -
1788166316 22.78° C 100% 928.8 hPa - - - -
1788166016 22.78° C 100% 928.6 hPa - - - -
1788165716 24.44° C 100% 928.8 hPa - - - -
1788165416 25° C 100% 928.7 hPa - - - -
1788165116 25° C 100% 928.7 hPa - - - -
1788164816 25.56° C 100% 928.5 hPa - - - -
1788164516 26.11° C 100% 928.6 hPa - - - -
1788164216 25.56° C 100% 928.5 hPa - - - -
1788163916 25.56° C 100% 928.5 hPa - - - -
1788163616 25° C 100% 928.5 hPa - - - -
1788163316 25° C 100% 928.5 hPa - - - -
1788163016 24.44° C 100% 928.6 hPa - - - -

* Rain since midnight (hover to see other rain measurements)
** Current wind speed in m/s (hover to see current wind gust speed)